This is the latest recevied weather packets stored in our database for station/object SR1WXW. If no packets are shown the sender has not sent any weather packets the latest 10 day(s).
| Time | Temp. | Humidity | Pressure | Rain* | Wind** | Luminosity | Snow |
|---|---|---|---|---|---|---|---|
| 1777530799 | 8.89° C | 56% | 1026.8 hPa | 0 mm | - | - | - |
| 1777530499 | 8.89° C | 56% | 1026.8 hPa | 0 mm | - | - | - |
| 1777530199 | 8.33° C | 55% | 1026.7 hPa | 0 mm | - | - | - |
| 1777529899 | 7.78° C | 55% | 1026.7 hPa | 0 mm | - | - | - |
| 1777529599 | 7.78° C | 55% | 1026.9 hPa | 0 mm | - | - | - |
| 1777529299 | 7.78° C | 55% | 1026.8 hPa | 0 mm | - | - | - |
| 1777528999 | 7.78° C | 55% | 1026.7 hPa | 0 mm | - | - | - |
| 1777528699 | 7.22° C | 55% | 1026.7 hPa | 0 mm | - | - | - |
| 1777528399 | 7.22° C | 55% | 1026.8 hPa | 0 mm | - | - | - |
| 1777528099 | 7.22° C | 57% | 1026.9 hPa | 0 mm | - | - | - |
| 1777527799 | 6.67° C | 60% | 1026.9 hPa | 0 mm | - | - | - |
| 1777527499 | 6.11° C | 60% | 1026.9 hPa | 0 mm | - | - | - |
| 1777527199 | 6.11° C | 61% | 1026.9 hPa | 0 mm | - | - | - |
| 1777526899 | 5.56° C | 61% | 1026.9 hPa | 0 mm | - | - | - |
| 1777526599 | 5.56° C | 61% | 1026.8 hPa | 0 mm | - | - | - |
| 1777526299 | 5.56° C | 62% | 1026.9 hPa | 0 mm | - | - | - |
| 1777525999 | 5.56° C | 63% | 1026.8 hPa | 0 mm | - | - | - |
| 1777525699 | 5° C | 63% | 1026.7 hPa | 0 mm | - | - | - |
| 1777525399 | 5° C | 64% | 1026.8 hPa | 0 mm | - | - | - |
| 1777525099 | 5° C | 64% | 1026.8 hPa | 0 mm | - | - | - |
| 1777524799 | 4.44° C | 64% | 1026.8 hPa | 0 mm | - | - | - |
| 1777524499 | 4.44° C | 65% | 1026.7 hPa | 0 mm | - | - | - |
| 1777524199 | 4.44° C | 65% | 1026.9 hPa | 0 mm | - | - | - |
| 1777523899 | 4.44° C | 65% | 1027 hPa | 0 mm | - | - | - |
| 1777523599 | 3.89° C | 65% | 1026.8 hPa | 0 mm | - | - | - |
* Rain latest hour (hover to see other rain measurements)
** Current wind speed in m/s (hover to see current wind gust speed)